Location: Sibbertoft
(52.4361°N, 1.0300°W)
Time: 22:38:38
(UTC+01:00)

Envisat - Visible Passes

Search period start: 21 August 2018 00:00
Search period end: 31 August 2018 00:00
Orbit: 764 x 766 km, 98.2° (Epoch: 21 August)

Date Brightness Start Highest point End Pass type
(mag) Time Alt. Az. Time Alt. Az. Time Alt. Az.
21 Aug 5.6 21:25:06 10° SW 21:28:41 19° W 21:32:18 10° NW visible
22 Aug 4.7 20:46:54 10° SSW 20:51:34 36° W 20:56:16 10° NNW visible
23 Aug 6.0 21:52:50 10° WSW 21:54:39 12° W 21:56:28 10° WNW visible
24 Aug 5.4 21:13:22 10° SW 21:17:23 23° W 21:21:25 10° NW visible
25 Aug 4.3 20:35:29 10° S 20:40:20 44° W 20:45:12 10° NNW visible
26 Aug 5.8 21:40:32 10° WSW 21:43:18 15° W 21:46:04 10° NW visible
27 Aug 5.1 21:01:47 10° SSW 21:06:06 28° W 21:10:27 10° NW visible
29 Aug 5.7 21:28:35 10° SW 21:31:58 18° W 21:35:22 10° NW visible
30 Aug 4.8 20:50:15 10° SSW 20:54:49 33° W 20:59:26 10° NNW visible
